Location: Krasnoyarskiy Pitomnik
(51.1333°N, 71.6167°E)
Time: 09:50:55
(UTC+00:00)

ARGOS - Pass Details

Date: 22 October 2021
Orbit: 819 x 835 km, 98.4° (Epoch: 06 December)

Event Time Altitude Azimuth Distance (km) Brightness Sun altitude
Rises 13:54:25 0° 176° (S) 3,357 6.2 -17.6°
Reaches altitude 10° 13:56:48 10° 181° (S) 2,431 5.6 -18.0°
Maximum altitude 14:02:06 57° 259° (W) 979 3.8 -18.8°
Drops below altitude 10° 14:07:28 10° 338° (NNW) 2,456 6.0 -19.6°
Sets 14:09:53 0° 343° (NNW) 3,396 6.7 -20.0°
